GFSSGP_850_spd_096.txt.gz
Wind_Speed
10 10 7 3 4 4 3 6 2 6 8 11 28 9 7 6 4 4 5 14 24 31 32 32 31 29 27 25 24 22 21 20 17 16 15 14 15 16 17 17 16 16 15 15 15 15 14 14 16
9 8 4 3 4 1 5 3 3 3 14 23 14 18 2 2 7 8 6 15 26 30 32 32 31 29 27 25 23 22 21 19 17 16 15 15 16 18 19 18 17 16 16 16 15 15 15 15 14
7 8 5 4 4 7 4 3 4 10 15 15 13 18 7 8 11 0 12 14 23 30 31 32 31 29 27 25 23 21 20 19 18 16 15 17 18 19 19 18 18 17 17 17 15 15 15 16 15
7 6 5 4 7 6 5 3 7 14 6 16 29 7 6 10 3 5 13 9 22 30 30 32 30 28 26 25 22 21 20 19 18 16 16 18 19 20 20 19 18 17 17 17 15 14 14 14 13
8 4 4 2 5 5 6 9 16 10 11 20 26 6 10 6 7 5 9 10 22 29 30 31 30 28 26 24 22 21 20 18 17 16 18 20 21 21 20 19 17 17 17 16 15 14 14 13 12
4 4 4 4 4 4 7 9 5 9 20 15 16 17 8 6 5 3 10 14 23 24 28 29 29 27 25 24 22 21 19 17 16 16 18 21 21 21 20 19 17 17 16 16 15 14 13 12 11
7 4 5 4 4 3 5 6 3 8 16 14 13 5 5 5 3 4 6 15 26 24 26 29 28 26 25 23 22 21 19 16 16 17 19 21 22 21 20 18 17 16 16 17 16 15 14 12 11
7 5 5 5 5 7 7 4 9 9 12 12 7 4 5 7 4 5 8 15 22 22 24 27 28 27 25 24 22 21 19 17 15 16 18 20 21 21 20 18 17 16 15 16 16 15 14 13 12
8 5 3 6 6 6 5 4 6 10 22 23 17 11 6 11 5 8 11 16 20 22 23 25 26 25 25 24 22 21 21 19 18 16 17 19 19 20 19 19 18 17 17 17 17 17 16 14 14
5 5 10 8 7 5 6 13 18 7 14 13 25 15 12 10 7 12 13 17 19 22 23 26 27 27 25 25 25 24 23 22 20 19 17 16 17 18 19 19 19 18 18 18 18 18 17 17 15
6 6 6 7 14 12 14 8 21 8 10 19 19 23 17 14 6 11 13 17 20 20 20 24 28 28 28 28 27 27 26 24 23 22 21 19 19 20 21 21 20 19 19 19 20 20 19 18 17
3 10 10 4 14 8 6 9 7 19 22 30 29 29 21 17 16 15 11 7 18 22 19 20 27 28 29 26 27 30 30 29 28 26 24 24 24 23 22 22 21 22 22 22 22 22 21 20 19
4 5 12 23 19 17 15 16 12 18 32 33 32 26 21 14 17 13 11 7 11 16 24 22 24 29 28 27 19 29 33 32 31 30 27 26 27 27 25 25 25 25 25 25 25 25 25 24 23
7 12 12 10 15 10 7 8 5 27 29 29 23 13 17 25 34 26 12 12 19 16 22 26 26 27 33 31 31 30 28 31 34 33 30 27 24 29 29 29 28 28 28 27 27 28 28 28 27
6 5 7 5 4 4 13 8 11 33 32 24 20 13 15 16 31 27 31 32 20 20 20 26 26 28 32 32 30 35 36 28 33 34 32 31 30 26 30 34 29 30 31 30 30 30 31 32 31
3 4 4 6 2 2 10 8 9 21 24 20 22 24 19 14 27 24 21 9 14 24 26 26 31 32 34 35 32 36 38 37 35 36 36 32 27 29 32 38 33 29 33 34 33 33 33 35 36
7 2 3 8 2 2 3 7 9 14 16 22 23 23 22 22 19 24 17 22 28 33 26 27 33 36 39 40 40 38 37 33 34 36 35 28 26 27 36 38 31 33 33 35 37 36 35 37 38
2 2 3 5 4 1 6 11 11 17 16 22 20 18 18 19 18 17 25 23 28 33 27 19 17 30 36 39 40 36 34 36 34 34 33 32 39 38 33 30 30 34 35 35 37 38 37 38 39
2 2 5 9 8 3 6 5 11 18 15 14 18 14 14 8 9 13 20 25 27 19 16 15 18 17 24 32 36 38 39 34 32 35 33 36 35 28 29 31 26 24 31 29 30 31 32 36 39
5 5 8 9 5 6 6 8 6 3 1 4 7 9 4 4 6 7 7 15 14 15 13 12 14 15 17 21 26 27 26 27 27 35 38 32 31 33 32 32 36 25 37 33 32 32 33 37 37
6 5 7 9 6 2 4 6 5 3 5 10 7 4 5 6 7 7 10 15 16 18 20 18 16 14 12 12 14 17 20 21 23 27 30 31 29 32 34 30 33 37 40 46 41 52 41 38 37
6 11 11 6 3 4 0 4 6 4 4 7 12 9 6 4 6 12 13 14 11 9 11 11 8 7 9 10 11 13 14 17 20 22 23 26 28 27 28 27 26 27 27 32 41 52 46 48 50
9 3 7 4 4 2 2 4 6 5 6 7 7 17 22 25 25 24 22 20 19 17 15 11 9 5 3 1 4 8 11 14 18 21 24 25 24 24 24 24 23 25 26 28 28 34 38 42 46
1 2 7 5 3 1 3 4 5 2 1 3 2 14 17 18 17 16 13 14 13 9 8 6 5 4 4 4 5 8 10 13 17 20 23 25 26 26 26 26 27 25 24 26 27 28 31 34 36
3 5 2 2 2 5 2 2 7 5 3 6 6 13 17 18 17 16 14 11 9 7 5 4 4 6 7 9 11 14 16 19 21 24 27 29 31 32 33 34 34 35 33 32 31 32 33 33 33
2 5 5 5 4 3 1 4 5 6 17 19 22 23 22 21 17 14 12 10 7 3 0 4 7 9 10 13 16 18 21 25 28 31 34 35 37 38 38 37 35 35 35 36 33 31 31 32 35
1 3 2 6 3 3 3 3 3 7 8 12 14 21 19 16 13 11 9 10 10 10 11 13 14 16 19 21 23 25 26 29 32 35 37 39 40 41 41 40 39 33 36 38 36 36 34 31 31
4 5 2 3 4 4 4 3 4 4 6 5 6 11 11 10 9 10 12 15 16 18 20 22 25 27 30 32 34 37 39 40 41 42 43 43 43 40 39 39 41 40 37 35 36 39 39 38 36
2 3 4 4 3 5 2 5 3 6 7 7 6 7 7 8 11 14 17 19 21 23 25 27 29 31 33 34 36 38 40 41 42 44 45 46 46 45 44 40 37 38 42 39 36 36 36 37 37
3 5 5 4 5 2 3 5 4 5 5 7 4 4 6 7 12 16 19 23 26 28 29 29 31 30 29 31 32 34 35 37 39 40 41 41 42 42 44 46 44 39 37 41 40 37 38 39 37

GFSSGP_850_spd_102.txt.gz
Wind_Speed
8 7 6 5 7 7 14 8 3 6 5 4 7 7 10 12 6 6 6 3 10 19 23 24 21 19 19 18 18 22 23 21 18 15 11 10 10 13 14 16 15 15 14 13 12 12 13 14 14
5 6 7 5 8 13 12 12 11 3 2 4 6 9 7 3 6 6 4 4 14 20 22 22 21 19 18 18 18 24 23 21 17 14 11 10 11 13 15 16 15 14 12 12 12 13 13 14 13
8 10 11 6 12 16 14 8 13 6 2 4 5 5 5 6 7 7 5 6 16 19 22 22 21 20 19 18 21 24 23 20 16 13 12 11 12 14 15 15 14 12 12 12 13 13 13 14 12
7 8 7 10 17 16 16 6 6 7 4 2 8 5 4 5 7 6 2 10 17 18 19 22 22 21 20 19 21 23 21 19 16 14 13 12 13 15 15 14 13 12 12 12 12 13 13 13 13
9 7 10 14 21 19 5 11 11 9 9 9 8 7 11 3 5 2 6 11 15 17 17 23 23 21 21 21 21 20 19 18 16 15 14 12 14 16 16 14 13 13 13 12 12 13 13 13 12
11 9 8 16 20 14 10 15 15 14 16 15 13 11 4 5 4 1 7 10 14 17 16 23 23 22 21 21 20 19 18 16 15 14 13 13 15 16 16 15 14 13 13 13 13 13 13 12 11
15 10 14 16 12 12 9 9 14 14 12 13 10 11 3 3 2 3 7 11 14 17 17 19 23 23 21 20 19 18 17 16 14 13 12 13 15 16 16 15 14 13 13 13 13 13 13 12 11
13 8 16 13 13 16 4 9 6 9 10 6 8 7 6 4 2 2 7 11 15 17 16 16 18 23 22 21 20 18 17 16 13 12 12 13 16 17 16 16 15 14 14 14 14 13 13 12 11
9 8 13 17 11 11 4 7 4 3 7 8 10 9 6 5 2 3 7 12 15 16 16 16 17 18 18 17 21 19 18 17 14 13 13 13 15 17 18 17 17 15 14 14 15 14 14 13 13
14 11 14 8 7 8 5 6 7 5 10 12 12 16 13 7 6 5 8 13 16 16 16 16 17 18 18 17 18 21 21 20 18 16 15 16 16 17 16 17 17 16 15 15 15 16 16 16 14
15 14 11 9 10 8 11 8 6 11 12 14 16 15 13 8 8 10 12 12 14 14 15 16 18 18 19 18 18 20 20 21 21 19 17 17 16 15 18 15 19 18 17 16 17 18 19 19 15
11 18 11 9 6 9 9 7 9 10 14 14 15 17 15 13 11 12 12 11 13 13 13 13 15 20 22 18 18 18 18 18 18 19 20 18 17 16 16 16 15 19 16 17 16 14 18 18 19
17 12 11 13 10 10 9 12 10 14 13 15 13 15 16 14 14 13 14 10 10 8 8 9 12 14 21 26 20 18 17 17 16 16 18 18 17 16 16 16 15 16 15 16 16 15 16 17 22
9 17 13 11 12 9 10 10 5 14 13 13 14 15 15 14 14 14 16 15 10 6 5 7 4 10 16 20 25 26 23 18 17 16 16 21 18 17 15 16 15 15 15 15 15 15 15 16 16
9 12 15 16 15 10 11 12 11 10 6 9 12 14 12 12 15 15 17 18 11 5 4 6 6 5 7 15 20 19 20 24 27 22 26 23 24 24 22 17 16 16 16 17 18 17 16 18 16
12 13 14 16 12 9 11 5 7 2 9 11 11 13 12 11 17 17 17 17 18 20 13 8 8 6 10 13 14 18 20 22 20 25 28 29 17 16 24 23 20 18 17 18 17 17 17 17 16
11 12 15 12 11 8 12 4 5 7 5 9 12 13 16 15 14 17 18 19 22 22 22 20 19 17 12 15 15 17 21 21 21 20 23 26 21 19 19 25 24 24 23 20 19 19 20 19 18
13 14 10 10 10 10 11 13 10 7 7 10 12 15 14 16 17 14 16 20 20 18 18 17 25 28 25 15 16 19 24 24 21 23 28 23 25 27 17 25 28 25 24 21 20 20 21 20 18
7 8 10 7 4 8 11 7 9 3 7 8 11 16 16 14 8 8 10 16 14 10 16 11 12 21 21 20 28 22 23 24 21 21 25 28 28 24 27 34 36 28 30 21 21 19 24 20 20
13 13 13 11 10 11 10 10 7 4 2 2 4 11 17 10 6 2 6 9 12 11 20 17 12 14 16 24 27 33 16 15 18 17 17 25 29 23 26 31 31 25 26 26 25 27 25 24 22
15 15 11 11 6 11 9 13 12 10 6 4 4 4 6 9 8 7 8 9 9 7 15 21 21 21 21 21 19 18 16 15 14 12 15 16 18 23 28 31 28 24 24 25 24 25 24 25 30
17 13 15 13 12 13 15 12 16 10 8 4 7 7 10 12 11 10 11 12 12 9 10 12 13 13 15 15 13 12 10 9 11 7 8 10 11 12 16 16 15 15 19 22 24 25 28 26 29
18 15 13 13 15 14 12 9 4 10 10 7 8 10 12 12 11 11 12 13 13 12 12 12 10 10 9 9 7 9 7 6 6 5 8 10 12 13 11 12 13 15 20 22 24 23 26 25 28
13 10 8 9 11 13 17 11 12 12 12 9 10 11 12 12 13 13 14 14 13 13 12 10 9 8 6 5 5 5 6 7 9 11 12 10 12 12 17 20 20 19 20 22 24 26 26 27 26
13 13 9 10 10 11 12 8 14 9 8 10 11 14 14 13 13 12 12 11 10 9 8 6 3 1 2 4 6 9 12 14 16 18 16 20 17 16 16 25 26 27 27 29 28 28 30 30 30
17 17 10 9 9 12 10 9 4 7 5 13 14 14 13 12 11 10 9 8 7 7 6 4 5 8 10 13 16 18 20 21 23 23 29 31 32 33 33 36 37 37 36 34 32 32 32 33 35
12 13 9 8 5 8 8 5 7 8 9 14 16 15 13 10 8 7 6 6 7 7 7 8 9 12 15 18 21 23 25 28 30 33 35 35 37 38 38 41 44 44 43 40 38 34 36 37 39
9 9 8 8 9 12 10 12 6 13 15 15 15 15 13 10 7 5 4 5 6 6 8 11 13 16 19 21 23 24 26 27 28 30 30 30 32 35 37 37 36 36 36 33 33 36 38 39 43
9 12 10 8 8 6 11 5 11 11 17 17 15 14 12 9 6 3 3 4 5 7 9 11 13 16 17 18 20 22 23 23 25 26 26 25 24 26 27 28 29 30 29 28 30 32 35 39 40
10 11 13 8 12 8 10 8 2 1 10 15 15 13 10 7 4 2 3 5 7 9 11 12 13 14 15 16 16 16 17 17 18 20 22 23 25 25 26 27 28 28 28 28 30 32 33 35 39

GFSSGP_850_spd_105.txt.gz
Wind_Speed
8 8 7 12 8 8 19 19 16 3 7 3 4 7 9 11 10 5 3 4 10 17 26 24 22 20 19 18 17 17 18 16 14 12 10 9 9 11 11 12 11 11 11 10 9 8 9 10 11
6 9 11 14 10 15 15 21 12 11 6 2 6 4 10 10 11 5 4 4 13 16 23 24 21 20 18 18 17 18 18 17 15 12 9 9 9 11 11 12 11 11 10 9 8 9 10 10 11
8 11 14 8 16 18 18 17 19 9 4 6 5 3 3 7 10 5 4 6 16 16 20 22 22 20 18 17 16 19 19 18 15 12 9 8 10 11 11 12 11 9 9 8 9 10 11 11 9
7 11 13 13 21 23 25 22 2 3 7 6 1 7 4 4 3 2 3 9 15 16 17 19 21 20 19 18 18 20 20 18 15 13 9 8 10 12 12 12 11 9 8 9 10 10 11 11 8
14 18 13 17 23 24 21 9 6 8 13 7 6 10 4 4 2 2 6 11 14 15 17 18 21 20 18 18 19 21 20 18 15 13 10 9 10 12 13 12 11 10 9 9 10 10 10 10 9
15 21 15 17 23 21 22 9 16 14 15 13 11 12 12 3 1 2 6 10 13 15 15 19 22 21 19 18 19 21 19 17 14 12 11 10 10 13 14 13 12 11 10 9 10 10 11 10 9
19 14 18 21 19 17 14 9 11 17 18 18 17 13 11 7 4 4 8 10 13 15 14 17 21 21 20 19 18 19 18 17 15 13 12 11 12 14 15 13 13 12 11 11 10 10 11 11 10
21 14 22 20 18 18 10 5 9 14 15 10 4 8 15 8 4 5 8 12 14 15 15 16 18 21 21 21 20 18 18 16 15 14 12 11 12 15 16 15 14 12 12 12 12 11 11 12 11
15 14 17 21 20 14 7 4 12 7 9 9 12 17 4 2 5 7 9 12 15 16 16 15 16 17 17 15 20 19 18 16 16 15 14 13 14 16 17 16 16 14 13 13 13 13 13 12 12
17 14 22 18 10 7 10 7 9 8 14 16 17 18 16 9 9 10 12 15 16 17 16 16 16 16 16 14 16 19 19 19 18 17 15 15 13 13 13 14 16 15 15 14 15 15 15 15 14
21 21 15 16 8 12 13 10 9 15 15 16 14 16 18 18 15 14 17 11 20 19 21 19 17 16 16 16 13 15 14 14 16 15 15 15 13 13 15 13 18 18 17 16 16 17 17 18 14
21 22 26 14 9 12 14 16 16 13 17 16 13 15 18 20 16 16 16 22 24 21 20 17 16 16 17 15 14 12 13 12 11 13 15 13 14 15 14 15 11 15 13 15 14 13 15 15 16
23 21 20 20 19 16 16 15 16 16 16 16 15 17 21 22 18 16 16 16 15 13 16 12 11 15 15 17 12 13 12 12 12 13 14 15 14 15 15 15 14 14 13 15 13 15 16 15 17
16 23 24 18 18 20 16 18 20 15 17 16 15 17 19 19 23 19 18 14 12 5 6 9 11 7 13 19 21 18 19 13 14 14 15 17 16 16 15 17 15 15 16 15 16 15 16 17 16
21 13 17 22 19 16 16 18 17 15 11 11 13 15 17 20 23 21 22 20 15 15 15 11 10 10 10 10 8 12 12 15 14 14 17 17 20 20 19 15 13 15 16 19 18 19 15 17 18
18 18 18 20 22 20 11 16 20 15 11 11 13 14 15 16 20 20 20 20 21 11 14 12 11 13 7 10 5 5 10 14 14 17 17 21 20 21 21 18 15 16 18 16 16 17 18 20 21
16 18 23 21 21 12 15 17 15 9 9 12 13 13 17 16 16 20 21 20 18 21 17 15 14 12 12 10 8 6 7 13 17 16 20 23 23 22 22 16 17 13 17 21 20 21 21 24 24
18 17 19 21 17 18 15 20 6 10 13 14 14 15 14 18 20 19 20 19 19 17 10 14 16 10 15 13 13 7 6 7 13 19 24 23 22 22 28 26 21 16 26 25 26 24 24 25 24
19 17 16 15 7 10 19 17 16 13 12 14 14 14 15 16 16 18 18 16 15 9 13 10 11 13 15 15 18 17 16 14 16 18 21 28 25 25 26 28 25 30 38 34 33 30 26 26 22
20 15 13 10 11 9 14 19 11 16 8 13 5 9 15 17 12 6 10 12 10 7 8 8 8 10 11 13 16 16 20 24 25 26 23 23 26 27 29 34 33 33 32 35 37 37 33 27 26
20 18 16 16 14 19 15 17 15 13 12 8 10 12 13 24 15 10 11 11 10 8 8 8 10 13 14 15 14 19 18 17 18 28 19 19 21 24 26 28 28 27 31 27 38 37 33 21 22
19 18 14 12 12 14 20 14 18 20 16 11 7 10 10 10 14 12 13 13 11 8 8 10 14 16 19 18 14 13 10 12 15 14 13 17 17 18 15 17 18 21 22 12 7 23 26 25 26
17 14 17 16 16 17 21 16 16 23 20 15 9 12 15 15 15 14 13 13 11 10 10 8 8 7 10 13 14 7 9 7 11 11 13 11 12 15 13 9 10 13 17 14 19 25 25 24 23
15 15 15 17 13 15 22 14 15 15 16 19 15 11 15 15 14 14 13 13 12 10 10 10 9 8 6 5 6 6 7 6 6 8 11 8 10 11 11 12 14 18 19 16 17 21 24 25 27
16 15 10 12 13 12 21 17 14 8 12 19 16 16 14 14 15 15 14 13 11 10 10 9 9 8 5 2 1 4 7 9 11 12 11 16 14 13 14 18 23 21 20 22 25 27 26 27 30
22 21 12 14 14 17 20 16 13 11 11 15 19 16 15 15 14 13 12 11 10 9 8 8 6 5 4 3 5 7 11 7 11 11 20 23 22 23 24 28 29 31 29 30 30 29 30 31 34
22 20 20 12 16 6 5 8 10 11 11 15 17 17 15 14 13 12 11 9 7 6 6 6 5 4 4 6 9 11 13 16 17 21 23 19 23 22 26 30 33 33 32 31 31 30 33 35 37
17 14 12 7 8 15 12 8 8 14 15 16 16 18 16 14 12 11 9 7 5 5 4 5 5 6 7 8 8 10 15 16 19 21 22 23 24 25 26 27 27 27 27 26 28 29 30 33 37
18 11 8 16 7 5 9 5 7 2 11 16 16 19 17 15 12 9 7 4 4 4 4 6 7 9 9 10 12 13 14 14 15 16 16 18 21 24 25 26 27 28 28 27 29 31 33 35 35
21 19 19 5 10 7 4 7 8 6 5 12 18 17 15 12 9 7 5 3 2 3 5 7 9 10 11 12 13 13 13 14 15 17 19 20 22 22 23 24 26 27 27 28 29 29 30 33 32

GFSSGP_850_spd_111.txt.gz
Wind_Speed
10 7 1 5 2 2 6 9 9 20 15 9 13 9 8 17 6 8 11 7 12 19 25 27 26 25 23 21 20 18 16 14 13 12 12 14 16 16 16 16 17 16 14 12 11 12 12 12 13
7 7 5 7 4 2 6 13 17 20 1 13 15 7 9 14 20 19 12 8 10 12 24 26 27 25 23 22 20 18 17 15 13 11 11 12 14 16 16 16 15 15 13 11 11 12 13 14 14
7 6 3 4 3 7 7 15 18 3 10 9 6 6 8 14 11 10 14 16 17 14 23 26 26 26 24 22 20 18 17 16 14 11 10 11 12 14 15 16 15 14 12 11 11 12 13 14 15
4 3 7 0 9 11 16 16 21 14 4 8 12 5 11 8 8 14 16 17 17 16 25 26 26 25 24 22 20 19 17 16 14 11 10 10 12 14 14 14 14 12 11 10 11 11 13 14 15
4 5 3 4 9 12 15 27 31 18 10 13 12 1 16 14 14 17 21 19 16 15 29 26 25 24 22 21 19 18 17 17 14 11 10 9 11 12 13 12 12 11 11 11 11 12 14 14 14
6 6 1 7 14 16 15 32 30 21 19 13 12 9 10 12 13 15 20 16 14 11 30 26 25 23 21 20 19 18 17 17 15 12 10 9 10 11 12 11 10 10 10 11 12 14 15 14 14
9 2 6 9 13 16 15 33 23 24 15 5 5 5 13 18 14 15 21 18 14 11 21 23 25 24 23 22 21 21 20 19 17 14 11 11 10 11 12 11 10 9 10 11 12 14 14 14 14
14 2 7 9 11 15 23 8 3 7 2 1 5 3 5 20 18 16 16 23 21 20 16 20 27 26 25 23 20 19 19 18 16 14 12 10 10 11 12 12 12 11 11 11 12 13 14 13 13
22 6 10 13 12 13 30 6 4 4 6 5 9 16 14 13 12 12 14 22 26 24 24 18 28 26 24 22 21 21 20 19 17 15 13 12 11 12 14 14 13 12 12 13 13 13 13 14 14
10 7 17 7 12 11 16 6 11 4 4 4 4 3 7 8 12 10 13 21 27 30 25 18 26 26 22 19 20 20 20 20 18 16 15 13 12 12 13 14 15 14 13 13 14 14 15 16 16
13 18 8 17 31 31 19 8 8 2 3 5 8 11 13 9 10 16 18 19 31 33 25 24 22 18 15 18 18 19 19 19 18 16 14 13 12 12 10 12 15 16 16 16 16 16 16 17 17
15 23 23 25 31 26 10 13 5 12 7 5 10 12 15 24 20 18 18 12 24 33 31 31 26 27 21 12 9 13 15 17 17 16 14 12 12 13 10 8 12 11 11 17 18 18 18 19 19
17 15 27 31 34 33 29 11 6 14 16 14 9 15 16 14 16 16 22 17 22 24 30 31 30 28 22 21 14 11 13 14 8 14 10 5 8 13 11 13 12 12 13 12 13 19 17 19 16
19 23 24 27 30 31 12 9 12 14 17 15 14 17 20 20 19 22 19 16 19 23 29 26 18 12 22 31 24 14 14 15 10 6 5 5 4 6 12 14 15 15 14 13 14 17 19 17 17
25 17 15 21 18 15 23 11 12 20 20 20 24 26 27 23 23 25 22 24 14 14 13 12 19 18 31 29 24 24 22 20 16 13 8 9 9 7 14 12 17 18 21 17 19 18 13 23 25
9 13 15 9 10 18 14 18 11 22 29 27 27 25 30 24 24 25 19 19 16 14 11 14 12 28 24 28 26 25 24 23 22 21 16 13 14 17 13 16 21 19 17 21 18 20 23 22 20
7 10 12 15 9 6 16 18 11 23 22 25 25 22 19 22 21 20 19 18 20 19 17 17 17 30 27 28 25 26 26 28 27 18 19 22 19 18 20 24 20 25 23 25 15 19 21 19 27
10 13 13 10 11 18 17 16 16 29 23 26 24 20 25 26 25 23 24 24 22 15 18 22 22 28 20 26 20 18 20 17 16 8 17 19 17 14 17 9 26 29 29 29 24 24 26 19 18
13 13 13 11 17 12 16 16 17 16 13 14 17 22 26 24 20 19 20 31 22 24 25 23 23 21 21 22 21 21 19 14 12 9 10 12 11 12 13 13 11 18 25 26 25 21 19 20 17
19 18 17 12 13 12 11 8 11 9 8 21 27 23 16 18 25 24 31 29 26 28 24 23 21 23 20 19 20 20 22 16 9 10 8 9 11 11 13 11 11 16 22 19 18 18 24 33 16
21 18 15 13 15 7 3 5 5 1 5 12 25 21 11 7 22 27 34 35 35 31 28 32 31 28 25 24 22 16 15 14 14 14 11 9 9 13 10 11 10 12 17 18 22 21 15 17 17
19 18 18 16 12 3 6 5 4 3 5 5 7 18 10 7 32 39 38 34 32 28 25 26 27 26 25 25 22 22 20 18 14 13 10 4 2 8 7 4 5 6 9 10 13 10 10 10 7
15 14 16 15 7 3 9 3 6 9 9 9 4 13 16 19 33 32 27 25 23 22 19 17 15 14 16 18 16 17 16 13 11 9 6 5 2 5 3 1 5 7 9 10 12 11 13 16 17
17 13 11 10 4 5 7 5 5 5 12 14 8 19 29 32 32 29 22 17 13 10 7 8 8 9 11 13 12 11 9 6 6 5 6 5 5 8 10 10 10 11 12 12 11 14 13 16 22
16 8 6 4 6 5 7 7 8 6 1 12 11 27 30 35 30 25 19 16 13 13 13 13 12 12 11 10 9 8 6 4 2 3 5 7 8 10 13 16 18 19 20 21 22 23 24 24 25
17 12 5 8 5 7 11 12 12 9 8 4 35 34 35 29 25 23 24 24 21 20 15 10 10 9 8 7 6 4 1 2 5 7 10 13 15 16 18 21 22 23 23 23 25 27 29 30 33
11 11 9 5 4 3 3 5 7 16 15 21 21 30 33 26 21 27 23 21 21 20 18 11 7 6 5 4 2 2 4 7 9 11 13 14 15 17 19 21 22 23 23 23 24 26 26 27 28
10 8 9 8 7 4 4 2 1 10 4 18 20 24 29 28 27 25 22 18 14 11 11 9 6 5 4 3 4 6 8 10 12 14 16 17 19 20 22 23 24 25 26 25 26 27 27 27 28
5 10 5 5 6 5 3 4 7 2 7 9 6 26 34 38 30 25 20 17 11 10 10 9 7 5 4 5 7 9 10 11 13 15 17 19 21 23 25 26 25 24 23 23 25 25 27 27 28
8 11 6 5 3 2 5 3 7 8 6 6 16 18 30 31 27 22 15 16 18 16 11 7 6 3 1 5 8 10 12 14 16 17 18 20 22 24 28 24 26 25 27 29 28 27 28 27 27

GFSSGP_850_spd_114.txt.gz
Wind_Speed
8 4 3 2 3 4 4 8 4 12 8 9 6 8 12 5 4 4 18 12 17 27 28 29 27 26 24 23 22 19 17 14 12 12 14 15 16 16 17 18 17 15 13 12 11 12 13 13 13
5 4 4 1 4 1 6 5 15 7 19 27 6 11 5 3 12 16 21 15 19 24 26 28 28 25 24 22 21 19 17 14 12 11 12 13 14 16 16 17 16 14 13 11 11 12 13 14 14
3 6 6 4 4 6 7 6 7 16 22 20 4 12 7 11 16 17 15 17 22 23 26 27 28 26 24 22 20 18 16 14 11 10 11 14 14 15 15 15 14 12 11 11 11 12 13 14 15
4 5 3 3 8 9 10 12 1 10 28 24 12 6 9 18 18 16 13 15 23 23 27 28 28 26 24 23 21 18 17 15 13 10 10 12 14 15 14 14 13 12 10 9 10 11 12 14 15
7 3 1 3 8 7 10 21 15 13 14 27 24 5 8 17 11 12 16 17 21 24 27 28 27 26 24 22 20 18 17 15 13 10 9 10 12 13 13 13 12 10 9 9 10 11 12 13 15
3 2 2 6 7 7 8 26 15 16 25 32 7 11 9 20 16 14 18 20 19 15 26 28 27 26 23 20 18 17 16 15 13 11 9 9 10 11 11 10 9 8 7 8 9 11 12 12 14
5 4 6 5 5 7 11 15 10 22 20 18 16 7 10 25 19 14 19 18 15 10 24 28 27 25 22 20 18 17 16 16 14 12 10 10 11 12 11 10 8 7 7 7 8 10 11 12 12
8 4 4 6 7 9 10 7 19 19 4 6 8 5 10 27 24 23 22 17 15 11 24 28 26 24 22 20 19 18 17 16 14 13 10 9 8 11 12 11 9 7 6 7 8 9 10 11 11
9 2 5 7 8 8 9 6 22 19 1 6 4 15 24 24 27 30 28 23 21 22 25 25 26 26 24 21 20 19 18 17 16 14 12 11 10 10 11 11 10 9 8 8 8 9 10 10 11
8 6 9 7 8 8 2 7 29 8 4 3 11 17 22 23 23 26 30 29 26 29 27 26 28 27 24 23 21 21 20 19 17 15 14 12 11 10 10 11 11 10 10 10 10 11 11 12 13
7 10 7 4 24 27 18 8 13 6 5 4 3 4 13 15 16 15 15 23 26 27 30 24 24 24 24 23 21 20 19 18 16 15 14 13 12 11 10 10 10 10 10 10 11 12 14 15 14
5 6 14 14 24 21 4 14 10 9 9 10 11 7 5 5 13 14 16 14 29 29 28 25 24 23 18 16 19 19 17 17 18 17 16 15 13 12 11 9 6 6 6 5 9 13 15 16 17
7 12 20 23 30 35 26 19 12 19 20 17 12 12 12 7 1 7 18 11 23 29 27 26 30 27 15 12 16 18 18 21 18 15 16 13 10 11 9 9 6 2 5 5 8 11 12 12 15
8 27 24 26 29 31 15 19 10 17 17 17 17 16 17 14 10 9 11 14 22 23 25 29 25 24 12 23 24 22 23 19 16 8 10 10 5 6 8 7 5 4 6 7 7 9 10 12 17
24 12 12 13 16 11 16 15 18 17 20 19 23 22 21 22 14 15 18 15 18 26 26 27 23 20 17 33 32 35 20 19 16 13 11 10 8 8 11 11 11 12 14 15 14 15 16 15 14
6 11 16 15 9 13 13 27 7 19 16 23 27 28 28 26 25 20 21 19 23 25 28 27 22 20 24 33 33 24 21 18 18 15 11 9 10 11 13 14 14 16 20 19 19 20 20 21 21
4 9 6 6 8 7 13 20 8 26 24 26 31 31 31 31 26 24 26 20 27 26 27 22 19 19 26 32 29 23 18 18 18 14 12 10 12 16 14 14 16 25 22 21 19 23 24 32 22
10 5 3 7 5 8 13 10 8 26 23 25 29 31 27 25 23 24 20 23 28 29 29 22 20 22 25 34 21 24 21 21 16 15 14 14 15 11 12 14 15 15 23 21 23 22 21 25 25
8 7 6 6 11 7 9 13 12 23 17 21 26 29 29 29 23 25 22 28 32 33 29 27 25 23 25 24 25 23 21 18 13 13 11 10 10 10 10 12 12 13 18 19 24 22 22 14 17
11 11 8 7 9 6 14 13 12 14 12 23 23 29 35 31 27 27 27 38 36 31 29 26 24 23 19 19 22 21 18 14 12 13 13 12 10 9 8 11 11 12 14 18 20 20 17 19 19
16 14 9 8 14 5 6 8 5 7 11 14 7 24 27 22 22 23 33 39 34 30 27 27 29 26 25 22 19 17 16 16 15 14 15 12 10 8 11 12 12 14 14 14 14 16 16 20 18
17 10 15 15 10 6 6 7 5 5 6 5 6 14 18 26 30 34 36 35 35 34 33 30 29 25 22 21 21 23 21 24 20 18 14 11 10 8 8 7 8 9 9 11 14 13 12 16 17
15 15 16 18 6 4 4 3 7 3 5 4 6 17 18 36 40 42 43 40 38 37 35 32 27 26 24 21 22 23 20 20 19 13 9 7 7 7 6 5 5 7 9 10 10 12 16 18 22
14 12 11 6 6 10 11 7 5 2 5 3 9 25 30 33 43 40 36 34 31 27 28 28 28 25 22 19 19 18 19 18 14 10 9 10 10 9 8 8 8 10 11 14 15 17 19 21 23
14 15 6 4 6 8 8 5 7 5 5 5 17 25 29 34 37 36 31 25 21 18 17 16 16 19 18 18 16 15 14 13 11 10 10 8 7 7 8 10 12 14 17 19 22 24 26 27 28
20 14 5 7 4 4 4 5 5 7 7 2 29 30 43 39 31 28 26 24 22 20 18 18 18 20 17 17 16 13 12 10 9 7 6 7 7 9 11 14 16 18 20 21 23 24 26 27 29
20 17 11 6 3 4 1 4 4 3 6 16 28 32 34 35 40 36 32 29 26 22 16 13 13 15 13 13 11 9 7 5 4 4 5 7 10 12 14 16 18 20 21 22 23 24 25 26 28
23 7 7 1 7 4 1 3 4 6 7 10 18 26 28 36 44 40 34 29 22 18 15 12 10 10 9 7 4 2 1 1 3 5 8 10 13 15 16 18 20 20 20 19 19 20 21 23 23
4 19 2 7 5 6 5 4 3 7 7 3 7 21 40 39 40 38 32 23 16 14 15 15 13 9 6 4 3 4 4 6 8 9 11 13 14 16 16 19 18 18 18 18 20 20 22 21 23
6 3 8 7 3 3 5 3 6 7 14 8 11 20 23 35 41 34 30 24 21 19 17 14 13 8 5 2 4 6 8 10 11 12 12 13 14 17 18 17 19 19 20 20 22 21 21 22 23

GFSSGP_850_spd_117.txt.gz
Wind_Speed
5 4 3 4 2 4 4 7 3 3 4 3 24 7 6 4 4 4 19 25 20 28 31 31 29 27 24 21 18 16 15 13 13 15 14 15 14 15 15 16 15 13 12 11 10 10 10 10 11
5 6 6 3 4 2 6 5 9 6 10 15 14 4 3 4 3 9 23 21 19 28 31 32 30 28 25 22 19 16 14 12 11 13 14 15 16 16 16 16 14 11 11 10 11 10 10 10 11
5 10 5 4 4 7 6 4 4 10 14 15 7 6 4 4 6 22 14 19 24 30 30 32 31 29 26 23 20 17 14 12 10 11 13 14 15 16 16 15 13 11 9 9 10 10 9 9 10
5 6 2 4 8 8 7 3 4 11 26 8 2 5 5 9 17 16 20 20 26 30 31 32 30 28 25 22 20 17 15 12 10 9 11 12 14 15 15 14 12 10 8 9 10 10 10 10 11
8 2 2 3 7 7 2 4 4 7 8 20 11 3 5 13 11 12 17 19 26 30 29 30 29 26 24 22 20 18 15 13 10 9 9 11 13 13 13 12 11 9 8 8 10 11 11 10 12
5 3 2 7 5 6 8 14 2 6 19 30 7 10 12 18 12 12 16 18 25 21 27 29 28 25 23 22 20 18 16 14 12 10 9 11 12 12 11 10 9 8 7 7 9 11 12 11 12
5 3 5 4 6 5 10 5 4 6 10 20 21 9 6 19 17 15 19 20 22 22 26 29 28 26 23 22 20 18 16 15 13 10 8 9 10 11 12 10 8 6 5 6 7 9 11 11 11
6 4 3 5 3 7 5 3 9 10 19 23 4 6 8 26 20 21 22 24 24 25 27 28 28 26 25 23 20 19 18 16 14 12 9 8 7 9 10 10 9 7 5 5 6 7 8 10 10
7 1 5 6 8 8 2 4 4 13 15 12 5 9 21 31 24 25 26 27 25 23 25 27 26 26 24 22 20 19 18 17 15 13 10 8 7 7 9 9 9 8 7 7 7 7 8 9 10
6 5 10 7 6 6 1 4 13 12 18 7 11 7 21 30 28 26 26 27 26 24 28 29 27 25 23 22 20 19 19 18 17 14 12 10 9 8 7 9 9 8 7 7 7 7 8 10 10
8 7 6 5 15 19 4 9 19 7 7 5 5 8 21 24 25 24 24 27 22 26 27 28 26 25 25 23 19 19 19 19 18 17 14 12 11 9 9 9 10 10 8 6 5 5 7 8 9
4 8 12 9 20 10 4 7 5 13 21 21 13 4 12 20 22 24 25 27 25 24 24 26 24 26 24 20 18 17 18 19 20 19 16 15 12 10 9 9 9 10 8 5 3 3 6 8 9
4 4 10 19 21 22 28 13 14 24 31 28 23 8 9 10 15 21 24 26 28 28 29 25 23 25 23 22 22 19 17 21 20 18 15 15 12 10 9 9 7 7 8 6 3 6 6 7 10
6 21 24 19 21 17 11 18 14 19 29 26 24 16 11 12 13 12 16 23 28 31 29 28 28 26 24 23 28 24 29 24 20 19 17 13 11 9 10 9 9 8 7 8 7 8 10 10 13
20 9 9 8 17 10 16 20 12 24 29 29 28 19 19 14 15 17 16 16 17 23 24 26 24 24 23 25 27 29 26 24 19 18 15 13 13 12 10 9 7 9 10 11 11 13 14 16 17
3 8 14 6 9 11 14 19 7 15 26 26 24 27 25 21 21 18 18 18 21 22 24 27 23 25 26 26 30 28 25 17 18 19 17 15 15 12 8 8 9 9 12 13 13 17 20 21 21
5 4 5 4 11 7 12 3 11 21 24 27 26 22 29 26 25 25 23 23 22 19 24 28 26 29 30 29 30 27 21 20 20 21 16 11 13 12 9 7 11 14 14 19 20 20 21 22 23
8 5 5 6 6 11 13 6 9 17 17 23 28 30 28 28 28 29 30 28 23 22 29 34 32 31 33 30 29 25 22 20 17 15 10 10 9 11 9 12 13 15 19 16 19 19 18 18 22
5 12 7 5 7 7 7 6 10 16 14 13 23 26 28 28 27 27 27 24 24 28 34 38 34 31 28 27 23 21 23 17 11 10 13 10 9 11 11 11 12 16 14 12 14 15 17 19 17
15 8 6 4 5 5 7 11 10 10 8 17 26 30 30 32 27 23 22 25 27 31 34 34 30 26 22 21 22 19 16 11 9 10 10 9 9 9 10 12 12 13 13 12 15 16 17 18 20
21 18 5 5 0 3 3 7 7 9 11 21 23 30 31 28 29 25 24 27 32 35 33 31 28 21 22 23 20 20 15 15 15 15 14 14 13 11 11 12 14 13 14 14 14 15 15 19 19
20 11 9 6 2 4 6 5 6 8 9 7 17 22 20 18 22 25 30 35 37 32 33 31 21 23 24 22 21 17 18 18 18 19 16 14 13 12 13 11 10 11 12 14 16 17 18 19 19
12 13 12 7 4 1 7 1 7 4 4 4 6 14 18 23 27 30 35 39 38 37 34 29 30 26 22 21 19 20 22 21 20 17 14 13 12 10 10 9 9 10 11 13 15 15 17 20 22
10 8 4 3 4 8 7 8 5 3 7 4 6 15 22 26 27 30 33 36 37 32 31 28 22 22 20 21 21 21 20 20 18 16 14 12 11 11 9 10 10 11 13 15 16 18 19 21 23
9 10 2 3 4 11 9 6 7 6 6 7 13 17 27 30 31 30 31 32 29 28 28 25 24 23 22 20 18 18 18 17 15 13 11 10 9 10 11 12 13 15 17 19 21 23 24 26 28
11 7 5 6 5 4 8 6 5 7 5 14 25 28 31 37 39 35 31 22 26 23 20 20 19 22 17 17 17 17 15 13 11 10 8 8 9 11 12 13 14 16 18 20 22 24 25 27 28
9 12 10 4 2 3 4 3 4 6 7 13 21 25 25 32 37 35 33 31 25 25 16 17 17 17 15 14 14 13 12 10 8 6 5 5 6 7 10 12 15 17 19 21 21 21 22 22 23
10 8 8 5 7 4 3 5 6 3 6 7 12 18 22 32 36 38 36 32 30 29 25 18 18 17 15 13 11 9 7 5 3 2 3 5 7 9 11 13 16 17 18 19 20 22 23 24 25
9 12 6 7 5 7 4 5 2 5 6 11 7 17 26 32 41 38 35 33 29 30 26 20 16 14 12 9 7 5 3 1 2 4 6 8 9 10 12 15 16 18 19 21 22 24 25 25 25
6 10 13 5 4 1 4 3 3 5 3 13 18 22 27 35 38 35 36 34 31 28 22 15 14 10 8 6 4 2 2 4 6 7 8 9 10 12 15 17 17 20 22 23 23 23 21 23 24

GFSSGP_850_spd_123.txt.gz
Wind_Speed
10 9 6 4 4 2 7 7 2 4 4 1 5 4 7 8 4 0 2 19 23 27 28 27 26 24 21 18 15 13 13 14 15 14 13 11 12 14 16 17 16 15 14 13 12 12 11 12 12
8 6 5 2 5 10 11 7 10 11 5 8 7 1 5 4 4 2 12 21 28 26 28 29 28 26 23 19 15 12 11 12 13 13 13 12 13 15 17 16 15 14 13 13 12 12 12 12 12
6 7 4 3 5 16 12 7 9 9 6 5 4 3 5 2 4 4 16 20 28 27 29 30 29 26 24 21 17 13 11 11 12 13 13 13 14 16 17 15 13 12 12 12 12 12 13 13 12
6 4 2 5 13 7 13 10 2 1 1 2 3 9 6 6 6 10 18 19 26 28 29 29 29 27 25 21 18 14 12 11 12 13 13 14 15 16 16 15 13 12 11 11 11 12 12 13 13
8 2 4 5 13 5 7 8 6 4 3 3 8 6 7 6 4 14 17 21 22 27 30 30 29 28 25 23 20 17 15 13 12 12 13 14 15 16 16 14 12 11 10 11 11 11 11 12 13
5 2 4 14 16 8 8 14 12 13 10 8 4 5 7 9 11 10 12 23 19 27 31 30 29 27 24 22 20 17 16 15 14 13 13 13 14 15 14 13 12 11 10 10 11 11 11 11 12
5 5 10 8 7 10 13 9 10 11 11 7 4 5 6 10 12 15 14 21 22 30 31 30 29 26 24 22 20 18 17 15 13 12 12 12 13 13 13 13 12 11 11 11 11 12 12 12 13
6 4 6 9 11 14 5 5 8 14 15 5 4 6 5 8 15 17 19 22 26 31 30 31 30 28 25 23 21 20 18 16 14 12 11 11 12 12 12 11 10 10 10 11 13 14 14 14 14
9 7 12 14 13 11 3 7 6 6 6 4 2 9 9 11 16 21 25 24 28 30 29 31 31 29 27 25 23 20 18 17 15 13 12 12 13 13 13 12 10 9 8 9 11 13 13 13 13
11 9 15 6 14 8 4 8 6 3 5 3 2 6 3 9 20 25 29 29 31 31 32 31 31 30 28 27 26 24 21 21 19 17 15 14 12 12 12 12 11 10 10 10 10 11 13 14 15
11 17 11 10 17 17 14 12 6 6 10 10 0 6 3 11 17 22 25 26 30 30 30 31 30 29 29 29 28 26 25 23 21 20 18 16 14 14 14 14 15 14 14 12 13 13 13 13 13
11 13 16 11 17 10 12 11 7 15 19 6 6 9 4 11 17 22 26 28 29 27 26 28 29 29 29 28 27 27 26 25 25 23 21 18 16 15 14 12 12 13 13 13 13 13 13 13 14
18 13 15 25 18 17 11 13 10 11 17 15 18 19 14 12 18 19 22 25 25 25 23 25 25 27 29 28 27 26 26 26 26 24 22 20 18 15 13 13 13 14 16 17 16 15 14 14 14
6 22 22 18 21 19 18 22 18 12 20 22 20 19 15 12 20 21 21 24 24 23 22 23 24 26 28 27 26 27 28 27 26 25 22 19 17 15 14 14 14 14 15 16 14 12 12 14 14
11 11 12 19 23 15 7 21 21 20 27 26 22 22 19 14 17 25 24 24 24 23 23 23 21 24 27 27 27 28 28 25 24 24 22 19 17 15 16 16 14 13 11 14 14 13 12 13 13
12 18 20 14 12 11 20 22 3 28 31 30 24 23 22 21 18 23 25 25 24 23 22 24 24 24 27 27 27 28 25 21 21 21 19 18 19 17 16 16 14 11 10 11 12 13 14 14 15
13 15 19 15 20 13 20 10 15 20 19 24 23 24 22 21 21 24 24 23 21 20 20 23 27 27 29 29 30 25 20 19 17 18 18 17 17 18 15 13 11 10 6 9 12 11 15 19 19
19 23 14 17 13 23 22 17 3 10 18 17 18 18 18 19 21 22 23 24 24 24 25 25 28 32 32 33 29 24 20 21 19 18 17 18 17 18 18 15 11 11 3 14 16 15 15 16 18
10 17 22 15 11 17 27 22 17 14 12 15 17 17 19 18 21 23 22 26 28 30 29 29 31 32 33 33 29 24 23 19 18 17 17 21 21 13 12 8 4 4 8 15 22 16 14 16 14
17 17 17 12 18 14 13 22 21 21 20 21 21 20 19 18 18 21 20 24 27 30 31 32 31 32 32 32 28 22 17 19 18 17 18 20 18 18 3 5 2 10 11 17 17 14 14 15 15
26 20 13 6 11 18 5 16 15 15 18 20 23 21 20 22 24 24 21 22 26 29 32 32 33 31 28 27 24 22 19 19 20 19 15 11 9 14 12 8 15 12 17 17 14 14 15 15 16
26 25 15 13 13 10 11 5 13 20 18 17 22 21 22 23 25 25 25 23 23 27 31 30 31 25 24 25 22 21 22 24 22 16 17 14 13 14 14 15 19 17 16 14 13 14 14 15 16
23 17 22 16 9 5 9 6 9 9 17 17 18 21 21 25 25 24 22 22 22 25 26 26 21 21 23 23 18 20 22 20 16 20 19 18 17 18 17 16 15 14 11 9 9 11 13 16 17
13 17 20 17 10 10 18 12 7 10 17 14 10 12 13 14 18 16 16 22 24 25 26 23 21 19 14 14 17 21 20 16 18 21 21 20 19 15 12 9 8 8 9 10 12 14 16 19 22
22 22 9 11 10 12 19 12 13 8 9 12 13 14 13 12 15 17 18 22 24 25 26 23 22 22 19 15 16 16 12 13 15 17 18 15 13 11 11 10 9 9 11 12 14 16 19 22 23
30 26 10 14 16 18 6 13 8 23 7 1 15 17 15 14 16 18 20 23 24 24 23 22 22 19 11 9 1 6 8 13 14 15 15 13 11 9 7 6 7 8 10 12 15 18 19 21 22
30 23 14 6 10 10 9 4 3 10 8 11 16 18 17 16 18 20 24 26 27 26 26 22 18 18 8 11 14 9 15 10 13 14 12 10 8 7 5 7 8 10 12 14 16 18 20 21 23
26 28 15 6 11 10 12 16 5 12 13 13 15 17 18 21 23 25 27 25 25 24 23 14 9 10 8 4 19 17 13 13 13 11 9 6 5 4 5 7 9 11 13 15 17 19 21 22 22
9 18 15 10 3 6 7 8 3 7 16 18 16 20 21 24 28 30 25 24 23 21 21 20 18 15 20 19 20 17 16 13 9 6 4 4 3 3 5 8 10 12 14 17 19 20 22 22 20
21 27 26 14 10 2 3 4 2 6 13 16 19 22 22 25 26 26 27 26 25 23 23 23 24 25 25 25 21 16 12 8 4 2 2 3 4 5 8 10 12 15 17 20 21 22 21 20 20